Regional Weather Roundup
Issued by NWS

Home | Current Version | Previous Version | Text Only | Print | Product List | Glossary Off
Versions: 1 2 3 4 5 6 7 8 9 10 11 12 13 14 15 16 17 18 19 20 21 22 23 24 25 26 27 28 29 30 31 32 33 34 35 36 37 38 39 40 41 42 43 44 45 46 47 48 49 50

000
ASUS43 KDMX 302307
RWRIA

WEATHER ROUNDUP FOR IOWA
NATIONAL WEATHER SERVICE DES MOINES IA
600 PM CDT SUN AUG 30 2015

NOTE: "FAIR" INDICATES FEW OR NO CLOUDS BELOW 12,000 FEET WITH NO
SIGNIFICANT WEATHER AND/OR OBSTRUCTIONS TO VISIBILITY.

* - THESE STATIONS ARE NOT NWS STATIONS...THUS NOT UNDER NWS
QUALITY CONTROL.  THEY ALSO DO NOT REPORT WEATHER SUCH
AS PRECIPITATION OR FOG.

IAZ001>003-012>014-020>022-031>034-043>046-310000-
   NORTHWEST IOWA

CITY           SKY/WX    TMP DP  RH WIND       PRES   REMARKS
CARROLL *      SUNNY     73  68  83 S7        29.99S
CHEROKEE *     SUNNY     72  68  88 S8        29.96F
DENISON *      SUNNY     73  68  83 S9        29.96F
LE MARS *      SUNNY     72  66  83 S15       29.95F
ORANGE CITY *  SUNNY     72  64  78 S12G17    29.95F
SHELDON *      SUNNY     72  66  83 S9G15     29.94F
SPENCER        HAZE      74  65  73 S10       29.96F VSB 1/2
STORM LAKE *   SUNNY     70  66  88 S10       29.99S
$$

IAZ055>058-069>071-079>083-090>094-310000-
   SOUTHWEST IOWA

CITY           SKY/WX    TMP DP  RH WIND       PRES   REMARKS
ATLANTIC *     PTSUNNY   75  68  78 S7        29.99F
AUDUBON *      SUNNY     73  66  78 S7        30.01S
CLARINDA *     SUNNY     79  70  73 SW5       30.01F HX  81
COUNCIL BLFS * SUNNY     75  68  78 S12       29.98F
CRESTON *      MOSUNNY   77  70  78 S8        30.02F
HARLAN  *      SUNNY     73 -35   1 S9        30.02S
LAMONI         MOSUNNY   79  68  69 SE5       30.01F HX  81
RED OAK *      MOSUNNY   77  70  78 S7        29.99F
SHENANDOAH *   MOSUNNY   79  70  73 S7        29.99F HX  81
$$

IAZ047>049-059>061-072>074-084-310000-
   CENTRAL IOWA

CITY           SKY/WX    TMP DP  RH WIND       PRES   REMARKS
AMES           PTSUNNY   74  67  78 S6        30.00F
ANKENY *       PTSUNNY   77  70  78 S3        29.99F
CHARITON *     MOSUNNY   79  68  69 S6        30.01F HX  81
DES MOINES     MOSUNNY   78  67  68 S6        29.99F HX  80
GRINNELL*      SUNNY     73  66  78 S3        30.02F
KNOXVILLE *    SUNNY     77  70  78 S5        30.00S
MARSHALLTOWN   PTSUNNY   73  66  78 S5        30.01F
PELLA *        SUNNY     77  72  83 SE3       30.02S
PERRY *          N/A     77  68  73 CALM      30.00F
$$

IAZ004>006-015-016-023>025-035-036-310000-
   NORTH CENTRAL IOWA

CITY           SKY/WX    TMP DP  RH WIND       PRES   REMARKS
ALGONA *       SUNNY     72  66  83 S12G18    29.99S
CLARION *      CLOUDY    72  66  83 S9        30.00F
ESTHERVILLE    SUNNY     73  67  81 S13       29.96F
FORT DODGE *   SUNNY     73  64  73 S8        29.99F
MASON CITY     CLOUDY    73  66  78 S12       30.01F
FOREST CITY *  MOSUNNY   70  63  78 S8        29.99F
IOWA FALLS *   CLOUDY    73  66  78 S6        30.02F
$$

IAZ007>011-017>019-026>030-037>042-050>054-066-310000-
   NORTHEAST IOWA

CITY           SKY/WX    TMP DP  RH WIND       PRES   REMARKS
CEDAR RAPIDS   MOSUNNY   73  67  81 CALM      30.01F
CHARLES CITY * CLOUDY    72  68  88 S8        30.02S
CLINTON *      SUNNY     73  66  78 CALM      30.04F
DECORAH *      CLOUDY    72  64  78 VRB5G14   30.01F
DUBUQUE        SUNNY     72  65  78 SW6       30.03F
MONTICELLO *   MOSUNNY   73  66  78 S6        30.02F
OELWEIN *      CLOUDY   N/A N/A N/A MISG        N/A
WATERLOO       CLOUDY    72  65  78 S8        30.01F
$$

IAZ064-065-067-068-078-310000-
   EAST CENTRAL IOWA

CITY           SKY/WX    TMP DP  RH WIND       PRES   REMARKS
DAVENPORT      SUNNY     77  66  68 N3        30.02F
IOWA CITY      SUNNY     76  66  71 W3        30.02F
MT. PLEASANT * SUNNY     82  64  54 CALM      30.01S HX  84
MUSCATINE *    SUNNY     79  66  65 CALM      30.01F HX  81
QUAD CITIES    SUNNY     80  65  59 CALM      30.01F HX  82
$$

IAZ062-063-075>077-085>089-095>099-310000-
   SOUTHEAST IOWA

CITY           SKY/WX    TMP DP  RH WIND       PRES   REMARKS
BURLINGTON     SUNNY     81  67  62 CALM      30.01S HX  83
FAIRFIELD *    MOSUNNY   79  68  69 CALM      30.01F HX  81
FORT MADISON * SUNNY     81  70  69 CALM      30.01F HX  84
KEOKUK *       SUNNY     82  70  65 N3        29.99F HX  86
OSKALOOSA *      N/A     77  68  73 S3        30.02S
CENTERVILLE *  SUNNY     77  70  78 E3        30.02F
OTTUMWA        MOSUNNY   78  69  73 CALM      30.00S HX  80
WASHINGTON *     N/A    N/A N/A N/A MISG        N/A
$$

ABBREVIATIONS USED IN REMARKS
   TC - TEMPERATURES IN CELSIUS
  WCI - WIND CHILL INDEX
   HX - HEAT INDEX
  VSB - VISIBILITY
$$




USA.gov is the U.S. government's official web portal to all federal, state and local government web resources and services.